Weather History for Mountain Home, ID

Change the Weather History Date:

Friday, February 1, 2013

  Actual Average Record
Temperature  
Mean Temperature 35 °F 32 °F  
Max Temperature 46 °F 41 °F 62 °F (2003)
Min Temperature 24 °F 23 °F -12 °F (1979)
Degree Days  
Heating Degree Days 30 33  
Month to date heating degree days 30 33  
Cooling Degree Days 0 0  
Month to date cooling degree days 0 0  
Moisture  
Dew Point 29 °F    
Average Humidity 90    
Maximum Humidity 100    
Minimum Humidity 54    
Precipitation  
Precipitation T in 0.03 in 0.32 in (1921)
Month to date precipitation T 0.03  
Sea Level Pressure  
Sea Level Pressure 30.34 in    
Wind  
Wind Speed 5 mph (WNW)    
Max Wind Speed 13 mph    
Max Gust Speed -    
Visibility 5 miles    
Events Fog    
T = Trace of Precipitation, MM = Missing Value Source: NWS Daily Summary

Daily Weather History Graph

Daily Weather History Graph

Search for Another Location

Airport:

Trip Planner

Search our weather history database for the weather conditions in past years. The results will help you decide how hot, cold, wet, or windy it might be!

Date:

Astronomy

Feb. 01, 2013 Rise Set
Actual Time 7:58 AM MST 5:56 PM MST
Civil Twilight 7:28 AM MST 6:26 PM MST
Nautical Twilight 6:54 AM MST 7:00 PM MST
Astronomical Twilight 6:20 AM MST 7:33 PM MST
Moon No Moon Rise 10:23 AM MST (2/1)
Length of Visible Light 10h 58m
Length of Day
9h 58m
Waning Gibbous, 69% of the Moon is Illuminated
Feb 1
Waning Gibbous
Feb 3
Last Quarter
Feb 10
New
Feb 17
First Quarter
Feb 25
Full

Hourly Weather History & Observations

Time (MST) Temp. Windchill Dew Point Humidity Pressure Visibility Wind Dir Wind Speed Gust Speed Precip Events Conditions
12:08 AM 32.0 °F - 28.4 °F 87% 30.25 in 10.0 mi NE 2.3 mph - N/A   Light Drizzle
12:28 AM 30.2 °F - 28.4 °F 93% 30.24 in 10.0 mi ENE 2.3 mph - N/A   Light Freezing Rain
12:58 AM 29.7 °F 26.1 °F 27.5 °F 92% 30.28 in 10.0 mi NNE 3.5 mph - 0.00 in   Light Freezing Rain
1:58 AM 27.9 °F - 25.9 °F 92% 30.30 in 10.0 mi North 2.3 mph - 0.00 in   Light Freezing Rain
2:58 AM 26.6 °F - 24.4 °F 92% 30.30 in 10.0 mi WNW 2.3 mph - 0.00 in   Light Freezing Rain
3:58 AM 27.5 °F 22.2 °F 25.5 °F 92% 30.31 in 10.0 mi WNW 4.6 mph - 0.00 in   Light Freezing Rain
4:58 AM 28.0 °F - 26.2 °F 93% 30.31 in 10.0 mi NW 2.3 mph - 0.00 in   Light Freezing Rain
5:28 AM 28.4 °F - 26.6 °F 93% 30.26 in 10.0 mi West 2.3 mph - N/A   Light Freezing Rain
5:33 AM 28.4 °F - 26.6 °F 93% 30.26 in 2.5 mi NW 1.2 mph - N/A   Light Freezing Rain
5:38 AM 28.4 °F - 26.6 °F 93% 30.27 in 1.2 mi WSW 2.3 mph - N/A   Light Freezing Rain
5:43 AM 28.4 °F 24.6 °F 26.6 °F 93% 30.27 in 1.0 mi West 3.5 mph - N/A   Light Freezing Rain
5:48 AM 28.4 °F 23.3 °F 26.6 °F 93% 30.27 in 0.8 mi West 4.6 mph - N/A   Light Freezing Rain
5:53 AM 28.4 °F 24.6 °F 26.6 °F 93% 30.26 in 0.5 mi West 3.5 mph - N/A Fog Light Freezing Fog
5:58 AM 27.5 °F 22.2 °F 25.9 °F 94% 30.32 in 0.5 mi West 4.6 mph - 0.00 in Fog Light Freezing Fog
6:03 AM 26.6 °F 20.0 °F 24.8 °F 93% 30.27 in 0.8 mi West 5.8 mph - N/A   Light Freezing Rain
6:08 AM 26.6 °F 21.2 °F 24.8 °F 93% 30.26 in 3.0 mi West 4.6 mph - N/A   Partly Cloudy
6:49 AM 26.6 °F 21.2 °F 24.8 °F 93% 30.27 in 0.5 mi WSW 4.6 mph - N/A Fog Light Freezing Fog
6:59 AM 24.8 °F 19.1 °F 23.0 °F 93% 30.34 in 2.0 mi West 4.6 mph - N/A   Clear
7:58 AM 26.6 °F 19.1 °F 24.8 °F 93% 30.34 in 3.0 mi NW 6.9 mph - N/A   Clear
8:20 AM 26.6 °F 17.5 °F 24.8 °F 93% 30.28 in 3.0 mi WNW 9.2 mph - N/A   Clear
8:26 AM 26.6 °F 18.2 °F 24.8 °F 93% 30.29 in 0.2 mi WNW 8.1 mph - N/A Fog Light Freezing Fog
8:37 AM 28.4 °F 21.2 °F 28.4 °F 100% 30.29 in 0.1 mi West 6.9 mph - N/A Fog Light Freezing Fog
8:55 AM 28.4 °F 21.2 °F 26.6 °F 93% 30.37 in 0.1 mi West 6.9 mph - N/A Fog Light Freezing Fog
9:34 AM 32.0 °F 28.7 °F 28.4 °F 87% 30.31 in 0.1 mi SW 3.5 mph - N/A Fog Light Freezing Fog
9:50 AM 32.0 °F 26.4 °F 32.0 °F 100% 30.32 in 0.2 mi WSW 5.8 mph - N/A Fog Light Freezing Fog
9:56 AM 32.0 °F 24.8 °F 32.0 °F 100% 30.39 in 0.3 mi WSW 8.1 mph - N/A Fog Light Freezing Fog
10:46 AM 35.6 °F 28.6 °F 35.6 °F 100% 30.33 in 0.5 mi West 9.2 mph - N/A Fog Fog
10:51 AM 35.6 °F 28.0 °F 35.6 °F 100% 30.33 in 0.6 mi West 10.4 mph - N/A Fog Fog
10:56 AM 35.6 °F 29.2 °F 35.6 °F 100% 30.40 in 1.0 mi West 8.1 mph - N/A   Mostly Cloudy
11:02 AM 37.4 °F 30.8 °F 35.6 °F 93% 30.34 in 3.0 mi West 9.2 mph - N/A   Mostly Cloudy
11:16 AM 39.2 °F 33.0 °F 37.4 °F 93% 30.34 in 5.0 mi West 9.2 mph - N/A   Partly Cloudy
11:58 AM 40.5 °F 34.6 °F 39.4 °F 96% 30.40 in 10.0 mi West 9.2 mph - N/A   Clear
12:58 PM 42.1 °F 37.1 °F 40.3 °F 93% 30.39 in 10.0 mi WNW 8.1 mph - N/A   Clear
1:58 PM 50.0 °F - 35.6 °F 58% 30.36 in 10.0 mi NW 12.7 mph - N/A   Partly Cloudy
2:58 PM 53.6 °F - 37.4 °F 54% 30.35 in 10.0 mi NW 11.5 mph - N/A   Clear
3:58 PM 46.2 °F 40.5 °F 32.7 °F 59% 30.39 in 10.0 mi NW 12.7 mph - N/A   Clear
4:58 PM 45.1 °F 40.3 °F 32.2 °F 60% 30.39 in 10.0 mi NNW 9.2 mph - N/A   Clear
5:58 PM 40.3 °F 35.5 °F 31.5 °F 71% 30.42 in 10.0 mi NW 6.9 mph - N/A   Clear
6:58 PM 34.9 °F 29.9 °F 30.4 °F 84% 30.44 in 10.0 mi West 5.8 mph - N/A   Clear
7:58 PM 32.9 °F 25.3 °F 29.5 °F 87% 30.44 in 10.0 mi NW 9.2 mph - N/A   Clear
8:58 PM 29.7 °F - 27.1 °F 90% 30.45 in 10.0 mi WNW 2.3 mph - N/A   Clear
9:58 PM 28.4 °F 24.6 °F 26.6 °F 93% 30.47 in 10.0 mi West 3.5 mph - 0.00 in   Light Freezing Rain
10:58 PM 30.0 °F 24.1 °F 28.2 °F 93% 30.47 in 10.0 mi WNW 5.8 mph - 0.00 in   Light Freezing Rain
11:43 PM 26.6 °F 21.2 °F 24.8 °F 93% 30.42 in 1.5 mi West 4.6 mph - N/A   Light Freezing Rain
11:48 PM 26.6 °F 21.2 °F 24.8 °F 93% 30.42 in 1.2 mi West 4.6 mph - N/A   Light Freezing Rain
11:53 PM 26.6 °F 20.0 °F 26.6 °F 100% 30.43 in 3.0 mi WNW 5.8 mph - N/A   Light Freezing Rain
11:58 PM 27.9 °F 22.6 °F 26.2 °F 94% 30.49 in 4.0 mi NW 4.6 mph - 0.00 in   Light Freezing Rain